Flag for US Virgin Islands Weather past 2 weeks in Charlotte Amalie, US Virgin Islands

Now
88 °F

Sunny.


Feels Like: 98 °F
Forecast: 81 / 87 °F
Wind: 17 mph from Southeast

Location: Cyril E. King International Airport

Current Time: Jul 22, 2014 at 3:47:57 PM

Latest Report: Jul 22, 2014 at 12:53 PM


Visibility: 10 mi

Pressure: 30.07 "Hg

Humidity: 65%

Dew point: 75 °F

Location of Charlotte AmalieLocation

Historic Weather in Charlotte Amalie — Graph

°F

Charlotte Amalie temperature yesterday

Maximum temperature yesterday: 87 °F (at 1:53 PM)
Minimum temperature yesterday: 78 °F (at 4:53 AM)
Average temperature yesterday: 83 °F

Past Weeks' High & Low Weather Summary

 TemperatureHumidityPressure
High91 °F (Jul 8, 11:53 AM)100% (Jul 11, 1:08 AM)30.15 "Hg (Jul 11, 1:08 AM)
Low78 °F (Jul 10, 5:53 AM)52% (Jul 8, 11:53 AM)30.02 "Hg (Jul 13, 4:53 PM)
Average84 °F75%30.07 "Hg
* Reported Jul 7 12:33 PM — Jul 22 12:53 PM, Charlotte Amalie, Weather by CustomWeather, © 2014

Note: Actual official high and low records may vary slightly from our data, if they occured in-between our weather recording intervals... More about our weather records

Advertising

Charlotte Amalie weather history for previous 24 hours

 ConditionsComfort  
Time TempWeatherWind HumidityBarometerVisibility
12:53 PM
Jul 22
88 °FSunny.17 mph65%30.07 "Hg10 mi
11:53 AM86 °FScattered clouds.18 mph70%30.08 "Hg10 mi
10:53 AM87 °FSunny.18 mph61%30.08 "Hg10 mi
9:53 AM86 °FPartly sunny.13 mph63%30.08 "Hg10 mi
9:44 AM84 °FBroken clouds.15 mph70%30.08 "Hg10 mi
9:15 AM84 °FPartly sunny.13 mph70%30.08 "Hg10 mi
8:53 AM85 °FScattered clouds.17 mph68%30.08 "Hg10 mi
7:53 AM84 °FSunny.16 mph72%30.07 "Hg10 mi
6:53 AM80 °FSunny.9 mph85%30.07 "Hg10 mi
5:53 AM79 °FPartly cloudy.6 mph84%30.05 "Hg10 mi
4:53 AM79 °FClear.6 mph79%30.03 "Hg10 mi
3:53 AM80 °FClear.6 mph76%30.03 "Hg10 mi
2:53 AM80 °FClear.7 mph79%30.03 "Hg10 mi
1:53 AM80 °FPassing clouds.12 mph76%30.03 "Hg10 mi
12:53 AM80 °FClear.9 mph76%30.05 "Hg10 mi
11:53 PM
Jul 21
80 °FLight rain. Partly cloudy.13 mph81%30.07 "Hg10 mi
10:53 PM81 °FClear.8 mph74%30.08 "Hg10 mi
9:53 PM81 °FClear.6 mph77%30.07 "Hg10 mi
8:53 PM81 °FClear.6 mph77%30.06 "Hg10 mi
7:53 PM82 °FClear.13 mph74%30.05 "Hg10 mi
6:53 PM83 °FSunny.10 mph72%30.05 "Hg10 mi
5:53 PM85 °FPassing clouds.10 mph68%30.03 "Hg10 mi
4:53 PM86 °FScattered clouds.13 mph67%30.03 "Hg10 mi
3:53 PM85 °FPartly sunny.13 mph72%30.03 "Hg10 mi
Weather by CustomWeather, © 2014

See weather overviewHow to use our weather pages